[[{"header":{"parameterUnit":"m.s-1","parameterCategory":1,"la1":30.2991,"la2":30.254,"lo1":-89.0895,"lo2":-89.0444,"dy":0.0017,"dx":0.0017,"nx":28,"ny":28,"refTime":"2024-08-12T09:00:00:Z","depth":0,"parameterNumber":2,"parameterNumberName":"U-component_of_WINDS"},"data":[0,0,0,0,0,0,0,0,0,0,0,0,0,0,0,0,0,0,0,0,0,0,0,0,0,0,0,0,0,0,0,0,0,0,0,0,0,0,0,0,0,0,0,0,0,0,0,0,0,0,0,0,0,0,0,0,0,0,0.8055,0.8056,0,0.8121,0.8122,0.8123,0.8166,0.8166,0.8167,0.8167,0.8237,0.8238,0.824,0,0,0,0,0,0,0,0,0,0,0,0,0,0.7969,0.7971,0.8055,0.8056,0.8057,0.8121,0.8122,0.8123,0.8166,0.8166,0.8167,0.8167,0.8236,0.8238,0.824,0,0,0,0,0,0,0,0,0,0,0,0,0,0.8018,0.7971,0.8055,0.8086,0.8089,0.8121,0.8122,0.8123,0.8166,0.8166,0.8167,0.8167,0.8236,0.8238,0.824,0.8247,0,0,0.8248,0.8249,0,0,0,0,0,0,0,0,0.8015,0.8021,0.8081,0.8084,0.8088,0.8136,0.8118,0.8165,0.8166,0.8137,0.8167,0.8167,0.8203,0.8208,0.822,0.825,0.8253,0.8248,0.8249,0.8251,0.8251,0,0,0,0,0,0,0,0.8012,0.8019,0.8081,0.8081,0.8086,0.8098,0.8105,0.8127,0.8167,0.8139,0.8143,0.815,0.8205,0.8217,0.8222,0.8254,0.8248,0.825,0.8252,0.8253,0.8295,0.8295,0,0,0,0,0,0,0.8003,0.8016,0.8079,0.8083,0.8052,0.8099,0.8107,0.812,0.8167,0.8174,0.8149,0.8152,0.8213,0.8219,0.8224,0.8236,0.8251,0.8253,0.8254,0.8295,0.8295,0.8295,0,0,0,0,0,0,0.8001,0.8009,0.8077,0.805,0.806,0.81,0.8114,0.8121,0.8133,0.8174,0.8182,0.8154,0.8214,0.8221,0.8241,0.8239,0.8254,0.8256,0.8296,0.8295,0.8295,0.8258,0,0,0,0,0,0,0.7999,0.8008,0.801,0.805,0.8061,0.8091,0.8114,0.8122,0.8137,0.814,0.8181,0.8188,0.8214,0.8237,0.8244,0.8242,0.8258,0.8296,0.8296,0.8295,0.826,0.8256,0.8253,0,0,0,0,0,0.7995,0.7997,0.8009,0.8017,0.8064,0.8091,0.8097,0.8127,0.8137,0.814,0.8166,0.8187,0.8238,0.8239,0.8246,0.8246,0.8297,0.8296,0.8295,0.8261,0.8257,0.8254,0,0,0,0,0,0,0.7955,0.8003,0.8017,0.8031,0.8057,0.8098,0.8102,0.8122,0.8145,0.8148,0.8184,0.8193,0.821,0.823,0.823,0.8255,0.827,0.8271,0.8241,0.8238,0.8235,0.823,0.826,0,0,0,0,0,0.7948,0.7965,0.8006,0.8014,0.8026,0.8062,0.8075,0.8096,0.8124,0.8135,0.8163,0.819,0.8213,0.8226,0.8249,0.8263,0.8273,0.8267,0.8263,0.8261,0.8261,0.8271,0.8268,0.8292,0.8292,0.8292,0,0,0.7933,0.7961,0.797,0.8007,0.8029,0.8046,0.8071,0.8088,0.8102,0.8138,0.8158,0.818,0.8213,0.823,0.8239,0.8247,0.8257,0.826,0.8257,0.8259,0.827,0.8267,0.8265,0.8292,0.8292,0.8292,0,0,0.7915,0.7938,0.7948,0.797,0.8003,0.8027,0.8029,0.8068,0.8084,0.8105,0.8132,0.815,0.8188,0.821,0.8226,0.8219,0.8239,0.8225,0.8209,0.8218,0.8216,0.8215,0.8212,0.8211,0.8225,0.8225,0.8225,0,0.7893,0.7919,0.7951,0.7967,0.7983,0.8016,0.8027,0.8047,0.8086,0.8097,0.8106,0.8154,0.8179,0.8202,0.82,0.8212,0.8217,0.822,0.8214,0.8213,0.8212,0.821,0.8209,0.8223,0.8224,0.8224,0.8224,0,0.7891,0.7909,0.7913,0.7949,0.7966,0.798,0.8014,0.8028,0.8047,0.8071,0.8093,0.8124,0.8154,0.8161,0.8181,0.8188,0.8192,0.8207,0.8222,0.8207,0.8206,0.8205,0.8221,0.8221,0.8222,0.8222,0,0,0.7848,0.7902,0.7903,0.7921,0.796,0.7975,0.7991,0.802,0.8031,0.8057,0.8072,0.8104,0.8118,0.8137,0.8159,0.8167,0.816,0.8182,0.8183,0.8177,0.817,0.8158,0.8157,0.8174,0.8174,0.8174,0.8167,0,0.7836,0.7864,0.7894,0.7912,0.793,0.7963,0.7977,0.8003,0.8026,0.8045,0.8071,0.8093,0.811,0.8121,0.8131,0.8158,0.8159,0.816,0.8188,0.8189,0.8178,0.8156,0.8144,0.8136,0.8167,0.8167,0.8167,0,0.7825,0.785,0.787,0.7908,0.7917,0.7929,0.7958,0.7976,0.8007,0.8023,0.8045,0.8069,0.8088,0.8102,0.813,0.8129,0.8143,0.8159,0.8159,0.8163,0.8177,0.8159,0.8135,0.8133,0.8167,0.8167,0.8167,0,0.7792,0.783,0.7847,0.7861,0.7907,0.7915,0.7934,0.7966,0.7982,0.8008,0.8019,0.8047,0.8063,0.8085,0.8116,0.8123,0.8141,0.8157,0.8156,0.8155,0.8158,0.8157,0.8135,0.8167,0.8167,0.8167,0.8167,0,0.7775,0.7786,0.7833,0.7844,0.7858,0.7892,0.7906,0.7928,0.7956,0.7973,0.8003,0.8018,0.8059,0.808,0.8105,0.8124,0.8131,0.8146,0.8152,0.8143,0.8141,0.8152,0.8153,0.8167,0.8167,0.8167,0.8167,0,0.774,0.7772,0.7793,0.7835,0.7846,0.7854,0.7891,0.7903,0.7928,0.7948,0.7955,0.7995,0.802,0.8054,0.8091,0.8108,0.8124,0.8135,0.8113,0.8117,0.8114,0.8114,0.8098,0.8098,0.8129,0.8129,0.8129,0,0.7727,0.7736,0.7779,0.7792,0.7811,0.7831,0.7847,0.7883,0.7899,0.7936,0.7944,0.7971,0.7995,0.8035,0.8068,0.8096,0.8107,0.81,0.8112,0.8102,0.8107,0.8106,0.8108,0.8097,0.8096,0.8096,0.8095,0,0.7701,0.7716,0.7738,0.7766,0.7784,0.7808,0.7833,0.7843,0.7883,0.79,0.7926,0.7945,0.7982,0.801,0.8042,0.8064,0.8087,0.8091,0.8093,0.8083,0.807,0.8077,0.8105,0.8091,0.8092,0.8092,0.8092,0.8092,0.7676,0.7686,0.7718,0.7742,0.7765,0.7788,0.7802,0.7829,0.7851,0.7883,0.7903,0.7929,0.7962,0.8008,0.8029,0.805,0.8059,0.806,0.8061,0.8061,0.8057,0.8067,0.8056,0.8056,0.8056,0.8057,0.8057,0,0.7651,0.7674,0.7695,0.773,0.7749,0.7768,0.7798,0.7812,0.7834,0.7862,0.7886,0.7916,0.7944,0.7979,0.8009,0.8019,0.803,0.8026,0.8025,0.803,0.8048,0.8044,0.8016,0.8016,0.8016,0.8016,0.8016,0.8016,0.7641,0.7659,0.7678,0.7709,0.7732,0.7756,0.7771,0.7793,0.7816,0.7849,0.7871,0.7894,0.7926,0.7958,0.7985,0.7995,0.8004,0.7996,0.8009,0.8025,0.8029,0.8032,0.8028,0.7998,0.7998,0.799,0.799,0.799]},{"header":{"parameterUnit":"m.s-1","parameterCategory":1,"la1":30.2991,"la2":30.254,"lo1":-89.0895,"lo2":-89.0444,"dy":0.0017,"dx":0.0017,"nx":28,"ny":28,"refTime":"2024-08-12T09:00:00:Z","depth":0,"parameterNumber":3,"parameterNumberName":"V-component_of_WINDS"},"data":[0,0,0,0,0,0,0,0,0,0,0,0,0,0,0,0,0,0,0,0,0,0,0,0,0,0,0,0,0,0,0,0,0,0,0,0,0,0,0,0,0,0,0,0,0,0,0,0,0,0,0,0,0,0,0,0,0,0,0.6029,0.6028,0,0.5967,0.5966,0.5966,0.5914,0.5913,0.5913,0.5912,0.5849,0.5848,0.5847,0,0,0,0,0,0,0,0,0,0,0,0,0,0.61,0.6099,0.6029,0.6028,0.6028,0.5967,0.5966,0.5965,0.5914,0.5913,0.5913,0.5912,0.5849,0.5848,0.5847,0,0,0,0,0,0,0,0,0,0,0,0,0,0.6057,0.6099,0.6029,0.5995,0.5991,0.5967,0.5966,0.5965,0.5914,0.5913,0.5913,0.5912,0.585,0.5848,0.5846,0.5852,0,0,0.5841,0.584,0,0,0,0,0,0,0,0,0.6059,0.6054,0.6,0.5997,0.5993,0.5947,0.5968,0.5927,0.5914,0.5943,0.5912,0.5911,0.5882,0.5878,0.5868,0.5849,0.5846,0.5841,0.584,0.5839,0.5838,0,0,0,0,0,0,0,0.6062,0.6057,0.6004,0.6,0.5995,0.5981,0.5974,0.596,0.5918,0.5941,0.5937,0.593,0.588,0.587,0.5866,0.5845,0.5841,0.5839,0.5838,0.5838,0.5823,0.5824,0,0,0,0,0,0,0.6071,0.606,0.6006,0.6003,0.6025,0.5981,0.5973,0.5963,0.5918,0.5911,0.5931,0.5928,0.5873,0.5868,0.5864,0.5864,0.5839,0.5837,0.5836,0.5822,0.5823,0.5824,0,0,0,0,0,0,0.6073,0.6067,0.6009,0.603,0.6022,0.598,0.597,0.5962,0.5952,0.5911,0.5903,0.5928,0.5872,0.5866,0.5854,0.5861,0.5837,0.5835,0.5822,0.5823,0.5824,0.5868,0,0,0,0,0,0,0.6075,0.6068,0.607,0.603,0.6021,0.6002,0.597,0.5961,0.5949,0.5944,0.5906,0.5899,0.5871,0.5857,0.5853,0.5859,0.5834,0.5821,0.5822,0.5823,0.5865,0.587,0.5874,0,0,0,0,0,0.6078,0.6086,0.6071,0.6065,0.6023,0.6002,0.5996,0.5964,0.595,0.5951,0.5924,0.5901,0.5862,0.5856,0.5851,0.5856,0.582,0.5822,0.5823,0.5863,0.5869,0.5874,0,0,0,0,0,0,0.6129,0.608,0.6063,0.6059,0.6035,0.5994,0.5995,0.5972,0.5952,0.5948,0.5909,0.5901,0.5892,0.5873,0.5868,0.5857,0.5837,0.5838,0.587,0.5875,0.5879,0.5884,0.5832,0,0,0,0,0,0.614,0.6127,0.6085,0.6086,0.6075,0.6037,0.6026,0.6003,0.5977,0.5967,0.5939,0.5914,0.5895,0.5884,0.5866,0.5862,0.5852,0.5863,0.5867,0.5871,0.5872,0.5865,0.5868,0.5829,0.5829,0.5829,0,0,0.6162,0.6134,0.6129,0.6095,0.6074,0.606,0.6029,0.6017,0.6006,0.5965,0.5951,0.593,0.5899,0.589,0.5885,0.5874,0.588,0.5873,0.5877,0.5875,0.5867,0.587,0.5874,0.583,0.583,0.583,0,0,0.6195,0.6174,0.617,0.6149,0.6116,0.609,0.609,0.6051,0.6035,0.602,0.5988,0.5974,0.5944,0.5922,0.5907,0.5928,0.5904,0.5923,0.5946,0.5939,0.5942,0.5945,0.595,0.5952,0.5924,0.5924,0.5924,0,0.6227,0.6206,0.6171,0.616,0.6145,0.6106,0.61,0.6081,0.6045,0.6034,0.6023,0.5982,0.5959,0.5942,0.5947,0.5937,0.5933,0.5927,0.5945,0.5947,0.5949,0.5953,0.5955,0.5926,0.5926,0.5926,0.5926,0,0.6245,0.623,0.6231,0.6195,0.618,0.6172,0.6134,0.6123,0.6101,0.6076,0.6059,0.603,0.6002,0.5997,0.5976,0.5977,0.597,0.5953,0.5932,0.5955,0.5958,0.596,0.593,0.5929,0.5928,0.5928,0,0,0.631,0.6252,0.6253,0.6234,0.6195,0.6182,0.6171,0.6144,0.6133,0.6109,0.6097,0.6071,0.6053,0.6036,0.6011,0.6006,0.602,0.5988,0.5986,0.5993,0.6016,0.6028,0.6031,0.6004,0.6005,0.6005,0.6017,0,0.6334,0.6312,0.6279,0.6267,0.6252,0.6213,0.6203,0.6176,0.6152,0.6134,0.6107,0.6088,0.6067,0.6056,0.6049,0.602,0.6024,0.6019,0.5991,0.599,0.5998,0.6033,0.6047,0.6061,0.6019,0.6019,0.6019,0,0.6361,0.6336,0.6323,0.6281,0.6273,0.6265,0.6235,0.6219,0.6187,0.617,0.6149,0.6122,0.6105,0.6087,0.6063,0.606,0.6047,0.603,0.603,0.6025,0.6006,0.6027,0.6065,0.6066,0.6021,0.6021,0.6021,0,0.6406,0.637,0.6356,0.6342,0.6294,0.6288,0.6267,0.6235,0.6219,0.6193,0.6182,0.6155,0.6139,0.6118,0.6083,0.6074,0.6062,0.6041,0.6045,0.6045,0.6043,0.6044,0.6078,0.6038,0.6038,0.6038,0.6038,0,0.6436,0.6428,0.6375,0.6367,0.6356,0.6317,0.6308,0.6284,0.6254,0.6239,0.6204,0.6191,0.6146,0.6126,0.6099,0.6081,0.6075,0.6059,0.6052,0.6061,0.6063,0.6051,0.6049,0.6038,0.6038,0.6038,0.6038,0,0.6484,0.6449,0.6431,0.6385,0.6374,0.6368,0.6328,0.6317,0.629,0.6271,0.6264,0.6221,0.6196,0.6159,0.6123,0.6104,0.609,0.6079,0.6101,0.6096,0.6101,0.61,0.6127,0.6127,0.6089,0.609,0.609,0,0.6505,0.6498,0.6451,0.6438,0.6418,0.6399,0.6382,0.6343,0.6326,0.6288,0.6281,0.6253,0.6228,0.6189,0.6154,0.6125,0.6112,0.6123,0.6108,0.6117,0.611,0.611,0.6108,0.6127,0.6128,0.6128,0.6129,0,0.6544,0.6526,0.6504,0.6474,0.6455,0.6431,0.6404,0.6395,0.635,0.6333,0.6306,0.6287,0.6249,0.6221,0.6187,0.6164,0.6138,0.6134,0.6132,0.6142,0.6154,0.6145,0.6109,0.6133,0.6133,0.6132,0.6132,0.6132,0.6577,0.6568,0.6533,0.6508,0.6484,0.6459,0.6446,0.6416,0.6393,0.6359,0.6337,0.6311,0.6276,0.6227,0.6205,0.6183,0.6173,0.6172,0.6171,0.6171,0.6173,0.6158,0.6177,0.6177,0.6177,0.6177,0.6177,0,0.6612,0.6587,0.6565,0.6528,0.6508,0.6485,0.6454,0.6438,0.6416,0.6386,0.6361,0.6329,0.6301,0.6263,0.6231,0.622,0.6207,0.6213,0.6213,0.6207,0.6186,0.6189,0.6224,0.6224,0.6224,0.6224,0.6224,0.6224,0.6628,0.661,0.6588,0.6557,0.6531,0.6506,0.6489,0.6465,0.644,0.6406,0.6382,0.6357,0.6323,0.6288,0.626,0.6249,0.6238,0.6247,0.6233,0.6214,0.6209,0.6205,0.6208,0.6246,0.6246,0.6256,0.6256,0.6256]}]]